Probability
6 5 3 2 1 0 0 0 0 0 0 0 0 1 1 1 2 1 0 0 0 0 0 0 0 1 2 2 2 1 0 0 0 0 1 2 1 0 0 0 1 1 1 2 2 3 2 1 0
4 3 1 1 0 0 0 0 0 0 0 0 0 1 1 2 2 1 0 0 0 0 0 0 0 0 1 1 1 0 0 0 0 0 1 2 2 1 1 1 2 2 2 2 2 2 1 1 0
3 1 0 0 0 0 0 0 0 0 0 0 0 1 2 2 2 1 0 0 0 0 0 0 0 0 0 0 0 0 0 0 0 0 1 2 2 1 1 2 2 2 1 1 1 0 0 0 0
1 0 0 0 0 0 0 0 0 0 0 0 0 0 1 1 1 1 0 0 1 1 1 0 0 0 0 0 0 0 0 0 0 0 1 1 1 0 1 1 1 1 0 0 0 0 0 0 0
0 0 0 0 0 0 0 0 0 0 0 0 0 0 0 1 0 0 0 1 2 2 1 0 0 0 0 0 0 0 0 0 0 0 1 1 0 0 0 0 0 0 0 0 0 0 0 0 0
0 0 0 0 0 0 0 0 0 0 0 0 0 0 0 0 0 0 0 1 2 2 1 0 0 0 0 0 0 0 0 0 0 0 0 0 0 0 0 0 0 0 0 0 0 0 0 0 0
0 0 0 0 0 0 0 0 0 0 0 0 0 0 0 0 0 0 0 0 1 1 0 0 0 0 0 0 0 0 0 0 0 0 0 0 0 0 0 0 0 0 0 0 0 0 0 0 0
0 0 0 0 0 0 0 0 0 0 0 0 0 0 0 0 0 0 0 0 0 0 0 0 0 0 0 0 0 0 0 0 0 0 0 0 0 0 0 0 0 0 0 0 0 0 0 0 0
0 0 0 0 0 0 0 0 0 0 0 0 0 0 0 0 0 0 0 0 0 0 0 0 1 1 0 0 0 0 0 0 0 0 0 0 0 0 0 0 0 0 0 0 0 0 0 0 0
0 0 0 0 0 0 0 0 0 1 1 0 0 0 0 0 0 0 0 0 0 0 0 1 1 1 0 0 0 0 0 0 0 0 0 0 0 0 0 0 0 0 0 0 0 0 0 0 0
0 0 0 0 0 0 0 0 1 2 1 1 0 0 0 0 0 0 0 0 0 0 0 1 1 1 0 0 0 0 0 0 0 0 0 0 0 0 0 0 0 0 0 0 0 0 0 0 0
0 0 0 0 0 0 0 0 1 2 2 1 1 1 0 0 0 0 0 0 0 0 0 0 0 0 0 0 0 0 0 0 0 0 0 0 0 0 0 0 0 0 0 0 0 0 0 0 0
0 0 0 0 0 0 0 0 0 1 2 3 2 1 0 0 0 0 0 0 0 0 0 0 0 0 0 0 0 0 0 0 0 0 0 0 0 0 0 0 0 0 0 0 0 0 0 0 0
0 0 0 0 0 0 0 0 0 1 2 3 2 1 0 0 0 0 0 0 0 0 0 0 0 0 0 0 0 0 0 0 0 0 0 0 0 0 0 0 0 0 0 0 0 0 0 0 0
0 0 0 0 0 0 0 0 0 1 2 3 2 1 0 0 0 0 0 0 0 0 0 0 0 0 0 0 1 1 0 0 0 0 0 0 0 0 0 0 0 0 0 0 0 0 0 0 0
0 0 0 0 0 0 0 0 0 1 2 3 2 1 0 0 0 0 0 0 0 0 0 1 1 2 2 2 2 2 1 0 1 1 1 0 0 0 0 0 0 0 0 0 0 0 0 0 0
0 0 0 0 0 0 0 0 0 1 2 3 3 2 1 0 0 0 0 0 0 0 0 1 2 3 3 3 3 3 1 1 2 2 2 1 0 0 0 0 0 0 0 0 0 0 0 0 0
0 0 0 0 0 0 0 0 0 1 2 3 3 3 2 1 0 0 0 1 1 1 1 1 2 3 4 4 3 3 3 3 3 3 2 1 0 0 0 0 0 0 0 0 0 0 0 0 0
0 0 0 0 0 0 0 0 0 1 2 3 3 3 2 1 0 0 1 2 2 2 1 1 2 4 5 5 4 3 4 5 4 3 2 2 2 1 0 0 0 0 0 0 0 0 0 0 0
0 0 0 0 0 0 0 0 0 1 2 3 2 2 2 2 1 1 1 1 1 1 1 1 2 4 6 6 4 4 5 5 4 3 3 3 3 2 1 0 0 0 0 0 0 0 0 0 0
0 0 0 0 0 0 0 0 0 1 2 2 1 1 1 1 2 2 1 0 0 1 2 1 1 3 5 6 5 4 5 6 6 4 4 4 4 3 1 0 0 0 0 0 0 0 0 0 0
0 0 0 0 0 0 0 0 0 0 1 1 1 1 1 1 2 2 1 0 0 1 2 2 1 2 4 6 6 6 6 7 7 6 6 6 5 4 2 1 0 0 0 0 0 0 0 0 0
0 0 0 0 0 0 0 0 0 0 0 0 0 0 0 1 2 3 1 1 1 1 1 1 2 3 5 7 8 8 9 8 7 6 6 6 6 5 3 1 0 0 0 0 0 0 0 1 1
0 0 0 0 0 0 0 0 0 0 0 0 0 0 0 1 3 3 2 2 3 3 1 1 2 3 6 9 10 10 9 8 7 6 6 6 6 6 4 1 0 0 0 0 0 0 0 0 0
0 0 0 0 0 0 0 0 0 0 0 0 0 0 1 2 4 4 3 3 6 6 3 2 2 3 6 10 12 11 9 7 7 6 6 6 6 6 5 2 1 0 0 0 0 0 0 0 0
0 0 0 0 0 0 0 0 0 0 0 0 0 0 1 2 4 5 4 4 6 7 5 5 5 4 5 8 11 10 8 6 6 6 6 6 6 6 4 3 1 0 0 0 0 0 0 0 0
0 0 0 0 0 0 0 0 0 0 0 0 0 0 0 2 4 6 5 4 4 5 5 6 7 6 5 5 8 8 6 6 6 6 6 6 6 5 4 2 1 0 0 0 0 0 0 0 0
0 0 0 0 0 0 0 0 0 0 0 0 1 1 1 2 4 6 5 3 2 3 4 5 7 8 6 5 5 6 5 4 5 5 4 4 4 4 2 1 0 1 1 0 0 0 0 0 0
0 0 0 0 0 0 0 0 0 0 0 0 1 2 2 3 3 4 4 2 2 3 4 4 6 7 7 6 5 4 3 2 3 4 3 3 3 3 1 0 0 1 1 0 0 0 0 0 0
0 0 0 0 0 0 0 0 0 0 0 0 1 3 3 3 3 3 3 2 2 3 3 4 5 6 7 6 5 3 2 2 2 3 3 3 3 2 1 0 0 1 1 0 0 0 0 0 0
Wind_Speed
10 10 7 2 1 2 6 7 8 8 9 10 10 11 13 13 9 8 1 2 6 9 10 10 11 12 12 12 12 12 11 11 11 11 11 11 11 10 10 10 10 10 10 10 11 11 10 10 9
10 7 4 2 0 4 6 7 10 10 8 7 10 12 13 13 11 7 3 3 7 10 10 10 10 11 11 12 12 12 12 12 12 12 12 11 11 11 11 12 11 11 11 11 11 10 10 10 9
11 7 2 1 3 5 7 7 8 8 6 8 9 11 10 8 8 5 2 3 7 11 11 10 10 11 11 12 12 12 12 12 12 12 12 12 12 12 13 13 13 12 12 12 11 11 10 10 10
5 3 1 3 8 9 8 7 7 8 7 8 9 9 9 9 6 5 3 5 8 10 11 9 10 11 11 11 11 12 12 13 13 12 12 12 12 12 12 12 12 12 12 12 11 11 11 10 9
2 1 2 5 8 8 7 7 7 9 8 10 11 11 10 9 8 6 5 7 8 9 10 10 10 11 11 11 11 11 12 12 12 12 12 12 12 12 12 12 13 12 12 12 11 11 11 10 9
1 0 2 5 8 7 6 7 9 10 10 9 11 11 8 7 6 5 5 7 7 8 9 9 10 10 11 11 11 11 11 11 11 11 11 11 11 12 12 12 12 12 12 11 11 11 10 10 9
1 1 3 6 7 7 7 8 8 8 9 8 8 9 7 6 4 4 5 5 5 6 7 7 7 8 10 10 10 9 9 9 8 8 8 9 9 10 10 11 11 11 11 10 10 10 10 9 8
1 1 3 4 6 7 7 7 7 8 8 7 7 8 6 5 4 4 5 5 5 5 5 6 6 6 7 7 8 8 7 6 6 6 5 6 7 8 9 10 10 10 9 9 8 8 8 7 5
1 2 3 4 5 6 6 7 7 6 8 9 10 10 9 7 5 5 5 5 5 4 4 5 5 5 5 6 6 6 6 4 3 3 3 3 3 3 5 8 8 7 7 7 6 6 5 4 3
1 3 4 5 6 6 6 6 5 6 7 8 10 10 8 7 5 5 5 4 4 4 4 4 4 5 5 4 4 2 3 2 1 2 2 1 2 3 5 5 6 5 5 4 4 3 1 1 0
4 4 6 7 7 7 6 5 4 5 6 6 8 9 7 6 5 4 4 4 4 4 4 5 4 4 5 3 2 1 2 1 2 3 3 3 2 2 3 1 2 2 2 1 1 1 1 1 1
5 6 5 5 5 5 5 5 5 6 5 5 8 8 6 5 4 4 4 4 4 4 5 4 4 4 5 4 2 2 2 1 2 2 3 2 1 2 2 1 1 1 1 1 1 1 1 2 2
6 6 6 5 4 4 5 5 5 5 4 6 8 7 5 4 4 4 4 4 5 5 4 4 4 4 5 3 2 3 2 2 2 2 2 3 2 2 2 2 2 2 1 1 1 2 4 3 4
5 5 5 5 4 4 5 3 2 4 5 6 6 6 5 4 4 4 4 4 4 4 4 3 3 3 4 3 3 3 2 2 2 2 3 4 3 3 3 3 3 2 2 1 2 3 3 3 3
5 5 5 4 5 4 4 2 2 5 5 6 5 5 5 4 3 3 3 3 4 4 5 3 2 3 4 4 3 3 3 3 2 2 3 4 3 3 3 3 3 2 2 3 3 3 3 3 4
5 4 3 3 5 3 2 2 3 4 5 4 5 5 4 4 3 3 3 3 3 4 5 4 3 3 4 4 3 3 3 3 3 3 3 4 4 4 3 3 2 2 3 2 2 2 2 3 2
5 4 4 3 4 4 4 2 4 3 4 4 4 5 5 4 3 3 3 3 3 3 4 5 3 3 4 3 3 3 3 3 2 3 3 4 4 4 3 2 2 3 3 3 3 3 2 2 2
2 3 3 3 4 3 3 2 4 4 3 4 4 4 4 3 3 3 4 3 3 3 3 5 4 4 3 2 3 2 3 2 2 2 3 4 3 4 3 2 3 3 3 3 2 2 2 2 1
3 4 2 1 1 1 2 3 4 5 3 2 3 4 4 4 4 4 3 4 3 3 4 5 4 3 3 2 2 2 2 2 2 2 3 3 4 4 3 3 3 3 2 2 3 2 2 1 1
3 4 2 0 0 2 3 3 4 6 5 3 2 3 3 4 4 4 3 3 3 3 3 3 3 3 3 2 1 2 2 2 2 2 3 3 3 4 3 3 2 2 2 2 3 3 2 1 1
3 3 3 2 3 5 5 5 5 5 5 4 2 3 4 4 4 4 3 3 3 3 2 2 3 3 3 3 2 2 2 2 2 2 2 3 3 4 3 3 2 2 2 1 1 2 1 1 1
3 3 4 5 5 4 5 3 3 6 5 4 2 2 3 4 4 5 4 4 3 3 2 2 2 3 3 3 3 3 2 2 1 1 1 2 3 3 3 3 3 2 2 2 1 2 1 1 1
3 3 6 8 7 7 7 5 3 5 5 5 4 3 3 4 5 5 5 4 3 3 2 2 2 3 3 2 2 2 2 1 1 1 2 2 2 3 3 3 3 3 2 2 2 2 2 1 0
4 5 8 8 6 7 7 5 2 2 4 4 4 4 4 4 5 5 5 5 4 3 2 2 3 2 2 2 1 2 2 1 1 1 1 1 1 1 2 3 2 3 2 2 2 1 2 2 2
4 4 3 4 5 4 2 3 2 3 4 4 4 3 4 4 4 5 5 4 4 3 1 1 1 1 1 1 1 1 1 2 1 1 1 1 1 1 1 1 1 1 2 2 2 2 1 1 2
5 4 3 4 3 2 3 2 4 5 5 5 4 4 5 5 5 4 4 3 3 3 2 1 1 0 0 1 1 0 0 1 1 1 1 1 0 0 1 1 1 2 2 2 2 2 2 2 2
5 4 5 6 8 5 3 2 4 4 5 4 4 4 4 5 4 4 4 3 3 2 1 0 1 1 1 1 1 1 0 0 0 0 1 1 0 0 1 1 1 1 2 2 2 2 2 2 1
5 6 4 4 4 4 4 3 2 5 5 4 3 3 4 4 4 4 3 3 2 2 1 1 1 1 1 1 1 1 1 0 0 0 1 0 0 1 1 1 1 2 2 2 2 1 2 2 2
5 5 5 4 5 4 4 0 3 5 4 3 2 3 4 4 4 3 2 2 2 3 2 1 1 1 1 1 1 1 1 1 1 1 1 1 1 1 1 1 2 2 2 2 2 2 1 1 1
4 5 5 4 5 5 4 0 5 6 5 3 2 4 4 4 3 3 2 2 3 3 2 2 2 2 1 0 1 1 1 1 1 0 0 0 1 1 1 1 2 2 2 2 2 2 2 1 1
Wind_Direction
280 259 250 252 261 92 74 72 73 64 62 60 58 65 65 53 51 81 106 43 80 87 87 74 60 58 57 57 57 58 60 60 59 59 59 60 59 60 64 64 68 74 79 75 74 72 71 71 68
283 278 270 242 175 93 78 77 73 69 70 71 63 64 69 62 66 84 72 45 81 85 81 73 65 62 61 59 57 58 60 61 60 58 58 60 61 63 63 65 71 76 78 77 74 72 71 71 69
270 273 276 322 56 78 87 83 87 83 73 76 73 57 53 60 63 74 83 76 82 87 86 78 69 67 66 63 61 61 63 63 61 58 58 63 66 66 66 67 71 73 74 73 71 69 68 68 68
278 279 267 70 72 72 90 96 98 90 72 69 83 74 67 56 68 94 98 86 86 91 93 87 79 76 74 71 70 69 68 66 62 60 61 67 68 68 68 69 69 71 72 71 71 68 67 68 67
254 291 85 90 84 75 74 87 90 84 76 70 78 88 80 66 77 82 67 66 77 88 97 96 89 86 82 76 73 72 71 70 68 66 65 66 68 69 70 71 72 73 72 70 70 68 66 67 65
282 233 99 98 93 88 79 79 84 87 90 92 95 93 86 84 71 72 72 70 77 91 102 106 100 94 91 83 77 76 75 73 73 71 70 69 69 69 71 71 73 73 72 71 70 70 67 68 65
283 65 100 103 97 88 73 64 71 79 77 73 84 94 98 89 85 84 77 73 79 93 106 119 123 112 101 93 87 84 82 82 82 81 78 77 76 75 75 75 76 75 73 72 72 73 72 70 64
308 94 108 105 105 93 84 80 71 71 75 76 74 95 111 115 115 98 85 75 70 84 92 102 116 119 116 110 103 100 94 91 91 95 92 91 89 86 84 83 81 81 79 79 79 81 79 74 64
268 94 97 94 100 98 103 100 88 83 87 81 78 91 115 128 125 105 85 69 59 68 80 91 101 105 108 112 114 121 118 111 101 114 124 121 116 105 88 89 93 91 90 90 90 94 92 84 67
102 84 84 79 94 104 99 102 113 107 96 96 94 96 116 128 126 112 101 87 78 63 71 81 87 92 88 87 108 115 99 95 88 81 76 86 76 82 92 106 110 111 107 106 111 119 129 126 81
91 94 83 82 93 105 104 97 93 102 90 99 114 120 134 134 123 110 99 90 80 72 56 62 79 93 92 79 85 81 84 67 32 62 65 52 68 100 108 124 126 130 135 136 121 178 224 121 84
101 94 99 98 95 110 107 95 78 71 84 99 114 128 133 132 118 103 99 103 99 86 67 56 65 80 85 78 74 68 62 58 36 27 70 58 38 58 82 96 108 121 101 60 30 315 50 54 75
106 110 110 107 114 109 100 97 95 97 100 105 113 120 128 125 118 112 105 93 90 89 80 48 49 71 84 82 67 77 57 40 48 15 29 59 41 39 48 68 59 70 74 71 35 32 40 35 46
112 118 122 133 135 122 112 108 124 123 119 116 120 124 129 118 109 105 99 94 90 93 92 70 49 74 88 88 71 64 63 54 38 10 22 46 42 41 38 50 44 41 43 40 59 60 54 46 47
141 147 152 166 166 149 134 132 139 135 137 136 135 125 114 106 98 90 88 93 97 97 100 92 66 65 75 74 68 70 65 56 44 17 16 36 40 47 37 41 38 29 33 45 46 56 53 55 54
187 187 173 176 174 165 192 188 135 150 149 139 139 132 126 118 115 100 88 78 91 102 103 100 74 66 74 72 62 62 64 53 41 26 13 22 29 46 43 36 35 31 31 40 51 62 60 55 58
207 206 183 178 188 181 198 177 150 171 161 157 149 135 135 137 126 107 103 91 86 90 103 106 91 69 68 69 75 61 63 62 43 36 19 10 18 40 44 28 31 37 33 33 42 48 59 59 53
245 231 190 187 186 186 187 177 162 180 188 161 143 136 133 128 123 112 104 85 73 71 86 92 89 73 71 57 61 59 59 54 49 42 23 13 16 37 44 31 31 37 36 38 44 50 48 59 46
277 279 274 284 125 213 220 207 189 170 172 175 149 144 141 138 125 109 104 103 88 75 75 79 89 88 78 56 60 59 50 52 47 40 34 16 13 24 46 37 28 30 33 35 44 48 56 40 43
263 265 277 336 200 267 264 245 201 157 173 169 169 141 138 132 124 120 118 104 100 83 68 90 87 91 89 70 71 86 65 53 56 27 21 13 19 20 37 40 37 30 31 29 39 41 34 10 36
269 289 289 285 281 254 254 244 198 166 159 149 141 135 130 123 122 126 121 110 103 96 81 69 89 95 100 90 64 63 58 47 43 27 17 5 21 24 23 25 36 34 37 31 35 48 42 5 353
285 313 288 264 259 257 246 263 196 166 157 155 153 136 125 125 116 110 97 86 84 89 85 73 72 81 89 104 91 91 82 63 33 35 22 5 18 21 20 24 23 33 31 29 18 40 23 44 333
310 303 276 269 264 267 244 245 217 162 166 164 161 146 126 119 111 110 105 98 83 61 58 62 68 70 76 86 106 102 91 82 54 52 49 28 12 11 16 23 26 19 19 23 37 23 11 26 4
284 271 260 251 252 255 240 235 205 171 165 155 140 133 123 110 108 103 102 96 83 66 47 47 57 61 72 89 113 127 121 119 91 59 70 46 22 1 10 20 27 18 11 10 27 29 16 14 3
257 276 270 232 224 240 206 213 168 112 100 107 113 111 104 100 103 102 98 103 98 82 55 67 70 58 89 114 127 186 158 148 134 103 82 58 53 4 335 7 30 22 13 13 19 19 22 20 15
263 267 282 290 275 288 265 216 120 109 96 96 106 111 104 99 94 98 103 99 102 99 75 54 89 87 103 169 170 136 65 139 140 139 116 106 84 340 334 15 19 24 28 27 24 9 13 32 34
265 260 272 283 285 276 231 140 124 129 113 103 102 100 98 101 97 95 95 86 86 98 86 40 150 122 60 32 64 138 158 177 147 145 129 130 106 20 14 16 44 35 27 43 37 10 8 9 20
268 291 282 270 282 279 257 218 155 147 137 123 115 105 98 94 91 90 90 85 76 80 98 51 72 87 74 63 22 27 28 19 78 77 66 81 81 50 21 7 29 45 35 40 54 16 3 16 12
236 257 273 281 277 278 283 15 93 128 122 111 107 107 100 96 87 66 70 75 75 70 62 55 31 54 50 42 26 43 37 342 259 126 77 49 40 56 58 32 41 45 36 40 39 19 18 35 10
250 258 267 272 282 286 285 292 102 109 99 97 100 100 91 87 89 90 76 77 68 63 53 37 28 32 39 351 9 38 31 334 292 97 85 62 32 24 44 42 41 41 36 46 41 0 357 33 28